�������l�o���
Date,Time,MP-1(��Sv/h),MP-2(��Sv/h),MP-3(��Sv/h),MP-4(��Sv/h),MP-5(��Sv/h),MP-6(��Sv/h),MP-7(��Sv/h),MP-8(��Sv/h),����,����(m/s),���J
2019/11/24,00:00,0.692,0.981,0.662,1.219,0.861,0.404,0.698,0.666,�k�k��,3.8,�L
2019/11/24,00:10,0.693,0.981,0.664,1.221,0.862,0.404,0.698,0.667,�k�k��,3.8,�L
2019/11/24,00:20,0.693,0.981,0.664,1.219,0.860,0.403,0.699,0.666,�k�k��,3.0,�L
2019/11/24,00:30,0.691,0.981,0.663,1.217,0.861,0.403,0.699,0.666,�k�k��,3.9,�L
2019/11/24,00:40,0.692,0.983,0.664,1.219,0.863,0.404,0.697,0.667,�k�k��,3.6,�L
2019/11/24,00:50,0.690,0.982,0.665,1.217,0.863,0.405,0.698,0.668,�k�k��,3.3,�L
2019/11/24,01:00,0.692,0.981,0.666,1.218,0.862,0.404,0.700,0.668,�k��,3.8,�L
2019/11/24,01:10,0.692,0.985,0.665,1.219,0.861,0.405,0.698,0.668,�k��,3.6,�L
2019/11/24,01:20,0.692,0.981,0.663,1.220,0.863,0.404,0.698,0.667,�k��,3.8,�L
2019/11/24,01:30,0.690,0.981,0.662,1.216,0.860,0.404,0.698,0.666,�k�k��,2.8,�L
2019/11/24,01:40,0.691,0.980,0.665,1.219,0.860,0.404,0.697,0.667,�k�k��,3.8,�L
2019/11/24,01:50,0.691,0.979,0.665,1.216,0.859,0.404,0.698,0.665,�k�k��,3.8,�L
2019/11/24,02:00,0.690,0.980,0.664,1.214,0.859,0.404,0.699,0.665,�k�k��,3.3,�L
2019/11/24,02:10,0.689,0.978,0.663,1.212,0.857,0.405,0.696,0.665,�k�k��,3.3,�L
2019/11/24,02:20,0.688,0.975,0.662,1.212,0.856,0.402,0.697,0.666,�k�k��,3.4,�L
2019/11/24,02:30,0.687,0.974,0.661,1.207,0.855,0.403,0.695,0.664,�k�k��,2.5,�L
2019/11/24,02:40,0.687,0.975,0.662,1.209,0.855,0.403,0.696,0.664,�k�k��,3.2,�L
2019/11/24,02:50,0.686,0.973,0.661,1.210,0.854,0.404,0.694,0.663,�k�k��,3.4,�L
2019/11/24,03:00,0.684,0.971,0.659,1.205,0.852,0.403,0.696,0.663,�k�k��,4.0,�L
2019/11/24,03:10,0.686,0.970,0.661,1.208,0.854,0.401,0.694,0.662,�k,4.0,�L
2019/11/24,03:20,0.687,0.974,0.660,1.206,0.853,0.404,0.693,0.663,�k,3.1,�L
2019/11/24,03:30,0.689,0.973,0.661,1.207,0.854,0.403,0.694,0.663,�k,3.6,�L
2019/11/24,03:40,0.689,0.972,0.659,1.208,0.853,0.402,0.693,0.663,�k�k��,3.2,�L
2019/11/24,03:50,0.687,0.974,0.660,1.207,0.852,0.404,0.693,0.661,�k�k��,3.3,�L
2019/11/24,04:00,0.690,0.975,0.661,1.208,0.853,0.404,0.695,0.665,�k�k��,4.3,�L
2019/11/24,04:10,0.688,0.972,0.660,1.210,0.852,0.404,0.693,0.661,�k�k��,5.2,�L
2019/11/24,04:20,0.687,0.969,0.659,1.206,0.850,0.402,0.693,0.662,�k�k��,4.5,�L
2019/11/24,04:30,0.684,0.968,0.658,1.201,0.851,0.403,0.694,0.660,�k�k��,4.6,�L
2019/11/24,04:40,0.684,0.969,0.658,1.203,0.849,0.403,0.694,0.661,�k�k��,5.3,�L
2019/11/24,04:50,0.687,0.968,0.659,1.204,0.848,0.403,0.693,0.660,�k�k��,4.5,�L
2019/11/24,05:00,0.685,0.970,0.659,1.206,0.851,0.403,0.693,0.662,�k�k��,5.5,�L
2019/11/24,05:10,0.685,0.968,0.659,1.203,0.846,0.402,0.692,0.661,�k�k��,6.0,�L
2019/11/24,05:20,0.682,0.962,0.656,1.196,0.843,0.402,0.692,0.660,�k�k��,4.9,�L
2019/11/24,05:30,0.684,0.968,0.657,1.199,0.845,0.402,0.691,0.660,�k�k��,5.3,�L
2019/11/24,05:40,0.687,0.968,0.657,1.201,0.844,0.403,0.693,0.660,�k�k��,5.6,�L
2019/11/24,05:50,0.686,0.967,0.656,1.201,0.844,0.402,0.692,0.660,�k�k��,5.3,�L
2019/11/24,06:00,0.687,0.968,0.657,1.201,0.844,0.402,0.692,0.661,�k�k��,5.5,�L
2019/11/24,06:10,0.685,0.969,0.657,1.201,0.844,0.403,0.691,0.660,�k�k��,5.5,�L
2019/11/24,06:20,0.686,0.969,0.658,1.203,0.848,0.403,0.693,0.663,�k�k��,4.9,�L
2019/11/24,06:30,0.687,0.969,0.658,1.204,0.847,0.404,0.693,0.661,�k�k��,4.7,�L
2019/11/24,06:40,0.687,0.968,0.658,1.205,0.847,0.405,0.693,0.663,�k�k��,4.9,�L
2019/11/24,06:50,0.685,0.969,0.658,1.204,0.845,0.404,0.692,0.662,�k�k��,4.9,�L
2019/11/24,07:00,0.687,0.970,0.660,1.206,0.848,0.404,0.693,0.661,�k�k��,5.5,�L
2019/11/24,07:10,0.685,0.972,0.658,1.205,0.849,0.403,0.694,0.663,�k�k��,5.2,�L
2019/11/24,07:20,0.686,0.971,0.658,1.205,0.846,0.404,0.693,0.663,�k�k��,5.5,�L
2019/11/24,07:30,0.687,0.969,0.658,1.207,0.845,0.404,0.693,0.661,�k�k��,6.1,�L
2019/11/24,07:40,0.685,0.973,0.658,1.206,0.847,0.403,0.695,0.661,�k�k��,5.8,�L
2019/11/24,07:50,0.685,0.970,0.658,1.204,0.846,0.403,0.693,0.661,�k�k��,4.9,�L
2019/11/24,08:00,0.684,0.968,0.655,1.199,0.842,0.403,0.693,0.658,�k�k��,5.2,�L
2019/11/24,08:10,0.684,0.967,0.658,1.201,0.843,0.403,0.692,0.662,�k�k��,5.6,�L
2019/11/24,08:20,0.687,0.968,0.657,1.202,0.843,0.403,0.692,0.662,�k�k��,5.5,�L
2019/11/24,08:30,0.684,0.968,0.657,1.202,0.840,0.402,0.690,0.657,�k�k��,4.6,�L
2019/11/24,08:40,0.679,0.956,0.652,1.191,0.833,0.401,0.689,0.658,�k�k��,4.9,�L
2019/11/24,08:50,0.681,0.956,0.653,1.190,0.834,0.402,0.688,0.658,�k��,4.2,�L
2019/11/24,09:00,0.683,0.959,0.654,1.195,0.836,0.403,0.691,0.657,�k�k��,5.0,�L
2019/11/24,09:10,0.685,0.960,0.655,1.195,0.837,0.403,0.690,0.658,�k�k��,4.3,�L
2019/11/24,09:20,0.685,0.962,0.656,1.197,0.838,0.403,0.691,0.657,�k�k��,4.7,�L
2019/11/24,09:30,0.686,0.963,0.655,1.196,0.838,0.404,0.692,0.659,�k�k��,4.4,�L
2019/11/24,09:40,0.686,0.961,0.653,1.197,0.838,0.403,0.691,0.659,�k�k��,4.2,�L
2019/11/24,09:50,0.683,0.962,0.654,1.196,0.836,0.404,0.691,0.657,�k�k��,4.3,�L
2019/11/24,10:00,0.686,0.963,0.654,1.195,0.836,0.403,0.692,0.658,�k�k��,4.2,�L
2019/11/24,10:10,0.684,0.962,0.652,1.195,0.834,0.403,0.691,0.658,�k�k��,4.2,�L
2019/11/24,10:20,0.684,0.961,0.654,1.194,0.836,0.403,0.691,0.658,�k�k��,4.2,�L
2019/11/24,10:30,0.687,0.964,0.652,1.199,0.837,0.404,0.693,0.658,�k�k��,3.8,�L
2019/11/24,10:40,0.686,0.962,0.653,1.198,0.836,0.403,0.693,0.659,�k�k��,4.6,�L
2019/11/24,10:50,0.683,0.965,0.653,1.198,0.838,0.402,0.692,0.658,�k�k��,4.9,�L
2019/11/24,11:00,0.687,0.964,0.656,1.199,0.836,0.402,0.692,0.658,�k�k��,5.6,�L
2019/11/24,11:10,0.687,0.963,0.655,1.200,0.835,0.404,0.693,0.656,�k,5.2,�L
2019/11/24,11:20,0.685,0.964,0.654,1.201,0.837,0.404,0.691,0.656,�k�k��,5.5,�L
2019/11/24,11:30,0.683,0.962,0.653,1.196,0.836,0.402,0.691,0.658,�k�k��,6.1,�L
2019/11/24,11:40,0.684,0.966,0.654,1.198,0.835,0.402,0.693,0.657,�k�k��,5.5,�L
2019/11/24,11:50,0.684,0.964,0.654,1.201,0.837,0.403,0.693,0.657,�k�k��,5.8,�L
2019/11/24,12:00,0.683,0.965,0.654,1.199,0.836,0.402,0.692,0.658,�k�k��,4.9,�L
2019/11/24,12:10,0.685,0.966,0.656,1.198,0.837,0.403,0.693,0.658,�k�k��,4.3,�L
2019/11/24,12:20,0.679,0.957,0.645,1.190,0.828,0.400,0.689,0.651,�k��,7.4,�L
2019/11/24,12:30,0.673,0.949,0.643,1.184,0.824,0.397,0.688,0.651,�k�k��,5.6,�L
2019/11/24,12:40,0.677,0.950,0.644,1.186,0.825,0.400,0.687,0.653,�k�k��,6.9,�L
2019/11/24,12:50,0.676,0.952,0.644,1.189,0.827,0.400,0.689,0.655,�k�k��,6.6,�L
2019/11/24,13:00,0.680,0.956,0.648,1.189,0.831,0.400,0.690,0.657,�k�k��,6.1,�L
2019/11/24,13:10,0.680,0.957,0.648,1.193,0.830,0.400,0.690,0.655,�k�k��,5.5,�L
2019/11/24,13:20,0.682,0.957,0.652,1.195,0.831,0.400,0.691,0.657,�k�k��,6.0,�L
2019/11/24,13:30,0.683,0.960,0.650,1.195,0.832,0.402,0.691,0.657,�k�k��,5.8,��
2019/11/24,13:40,0.682,0.963,0.649,1.198,0.832,0.401,0.692,0.659,�k�k��,5.5,��
2019/11/24,13:50,0.685,0.963,0.651,1.199,0.834,0.401,0.694,0.658,�k�k��,5.8,�L
2019/11/24,14:00,0.685,0.965,0.651,1.202,0.834,0.401,0.693,0.658,�k�k��,5.6,�L
2019/11/24,14:10,0.686,0.964,0.653,1.203,0.835,0.401,0.695,0.660,�k�k��,3.8,��
2019/11/24,14:20,0.688,0.967,0.654,1.205,0.836,0.403,0.694,0.658,�k�k��,4.5,��
2019/11/24,14:30,0.688,0.969,0.653,1.202,0.837,0.403,0.694,0.660,�k�k��,4.5,��
2019/11/24,14:40,0.687,0.972,0.654,1.204,0.837,0.403,0.695,0.659,�k�k��,5.2,��
2019/11/24,14:50,0.687,0.970,0.654,1.206,0.838,0.403,0.695,0.660,�k�k��,5.3,��
2019/11/24,15:00,0.688,0.971,0.655,1.206,0.838,0.403,0.695,0.661,�k�k��,5.3,��
2019/11/24,15:10,0.687,0.972,0.657,1.205,0.839,0.402,0.696,0.661,�k�k��,5.5,��
2019/11/24,15:20,0.687,0.973,0.656,1.209,0.842,0.403,0.696,0.661,�k,4.6,��
2019/11/24,15:30,0.687,0.972,0.654,1.209,0.840,0.402,0.693,0.662,�k,4.2,��
2019/11/24,15:40,0.688,0.975,0.654,1.209,0.842,0.402,0.697,0.662,�k,3.4,��
2019/11/24,15:50,0.686,0.973,0.656,1.211,0.840,0.402,0.696,0.662,�k,3.2,��
2019/11/24,16:00,0.691,0.975,0.655,1.211,0.842,0.402,0.695,0.661,�k,3.5,��
2019/11/24,16:10,0.689,0.975,0.656,1.211,0.842,0.402,0.697,0.663,�k,3.1,��
2019/11/24,16:20,0.688,0.975,0.655,1.210,0.843,0.402,0.696,0.662,�k,2.9,��
2019/11/24,16:30,0.688,0.977,0.657,1.212,0.845,0.402,0.696,0.666,�k,3.4,��
2019/11/24,16:40,0.690,0.977,0.654,1.211,0.845,0.403,0.696,0.663,�k�k��,3.3,��
2019/11/24,16:50,0.690,0.978,0.655,1.215,0.845,0.404,0.696,0.662,�k�k��,3.2,��
2019/11/24,17:00,0.692,0.978,0.656,1.214,0.848,0.403,0.697,0.664,�k�k��,2.6,��
2019/11/24,17:10,0.690,0.978,0.656,1.213,0.845,0.404,0.697,0.664,�k�k��,1.7,��
2019/11/24,17:20,0.691,0.978,0.657,1.211,0.847,0.401,0.698,0.665,�k,2.7,��
2019/11/24,17:30,0.692,0.979,0.658,1.213,0.849,0.403,0.698,0.665,�k,2.2,��
2019/11/24,17:40,0.692,0.978,0.656,1.216,0.848,0.403,0.697,0.666,�k�k��,1.7,��
2019/11/24,17:50,0.691,0.979,0.656,1.213,0.849,0.404,0.698,0.664,�k�k��,1.3,��
2019/11/24,18:00,0.692,0.978,0.656,1.215,0.849,0.402,0.698,0.665,��,0.8,��
2019/11/24,18:10,0.692,0.980,0.658,1.215,0.848,0.403,0.700,0.665,�쐼,1.4,��
2019/11/24,18:20,0.694,0.980,0.656,1.216,0.849,0.403,0.699,0.667,�쐼,2.0,��
2019/11/24,18:30,0.691,0.983,0.657,1.216,0.850,0.405,0.698,0.665,�쐼,2.6,��
2019/11/24,18:40,0.693,0.981,0.658,1.218,0.851,0.406,0.699,0.666,��,4.6,��
2019/11/24,18:50,0.692,0.980,0.657,1.216,0.851,0.404,0.700,0.666,��,4.2,��
2019/11/24,19:00,0.692,0.980,0.658,1.215,0.851,0.403,0.701,0.665,��,5.0,��
2019/11/24,19:10,0.692,0.980,0.657,1.216,0.853,0.403,0.699,0.665,��,5.8,��
2019/11/24,19:20,0.693,0.981,0.660,1.215,0.853,0.404,0.699,0.666,��,4.5,��
2019/11/24,19:30,0.693,0.981,0.658,1.216,0.850,0.404,0.699,0.666,��쐼,4.4,��
2019/11/24,19:40,0.691,0.979,0.659,1.216,0.853,0.404,0.699,0.667,��,4.4,��
2019/11/24,19:50,0.692,0.984,0.658,1.216,0.852,0.403,0.700,0.665,��,4.5,��
2019/11/24,20:00,0.694,0.979,0.660,1.217,0.854,0.405,0.700,0.664,��,3.8,��
2019/11/24,20:10,0.694,0.981,0.659,1.218,0.854,0.405,0.699,0.665,��,3.1,��
2019/11/24,20:20,0.693,0.983,0.659,1.217,0.855,0.404,0.701,0.667,��,2.2,��
2019/11/24,20:30,0.692,0.983,0.660,1.218,0.853,0.404,0.699,0.665,��,2.1,��
2019/11/24,20:40,0.691,0.981,0.658,1.219,0.853,0.405,0.701,0.666,��,2.8,��
2019/11/24,20:50,0.694,0.981,0.660,1.217,0.854,0.404,0.699,0.666,��,3.6,��
2019/11/24,21:00,0.692,0.980,0.658,1.217,0.854,0.403,0.701,0.665,��,3.8,��
2019/11/24,21:10,0.694,0.983,0.661,1.218,0.854,0.405,0.699,0.668,��,2.8,��
2019/11/24,21:20,0.694,0.979,0.659,1.217,0.854,0.405,0.699,0.666,��쐼,2.5,��
2019/11/24,21:30,0.694,0.981,0.662,1.217,0.853,0.404,0.699,0.667,��,1.0,��
2019/11/24,21:40,0.693,0.982,0.658,1.220,0.855,0.405,0.698,0.665,��,1.3,��
2019/11/24,21:50,0.693,0.982,0.661,1.219,0.854,0.404,0.700,0.666,��쐼,1.1,��
2019/11/24,22:00,0.693,0.984,0.658,1.217,0.856,0.405,0.699,0.666,�쐼,1.3,��
2019/11/24,22:10,0.694,0.983,0.658,1.218,0.855,0.405,0.699,0.666,�쐼,1.3,��
2019/11/24,22:20,0.694,0.980,0.660,1.217,0.855,0.406,0.699,0.664,��,1.3,��
2019/11/24,22:30,0.691,0.983,0.657,1.218,0.854,0.404,0.699,0.666,��,1.6,��
2019/11/24,22:40,0.695,0.980,0.659,1.219,0.854,0.405,0.698,0.666,�쐼,1.7,��
2019/11/24,22:50,0.692,0.980,0.660,1.218,0.854,0.405,0.699,0.664,�쐼,1.6,��
2019/11/24,23:00,0.692,0.982,0.658,1.219,0.853,0.405,0.700,0.667,�k��,1.5,��
2019/11/24,23:10,0.692,0.982,0.658,1.217,0.853,0.405,0.698,0.666,�k��,0.8,��
2019/11/24,23:20,0.693,0.981,0.659,1.218,0.856,0.406,0.701,0.666,-,CALM,��
2019/11/24,23:30,0.691,0.985,0.658,1.219,0.854,0.406,0.699,0.665,�k,0.7,��
2019/11/24,23:40,0.692,0.979,0.658,1.215,0.856,0.406,0.699,0.665,�k�k��,1.4,��
2019/11/24,23:50,0.693,0.981,0.660,1.216,0.856,0.407,0.701,0.664,�k,1.7,��
